Location: ???????
(54.9996°N, 37.9529°E)
Time: 11:18:51
(UTC+00:00)

Cosmos 1766 Rocket - Visible Passes

Search period start: 23 July 2024 00:00
Search period end: 02 August 2024 00:00
Orbit: 601 x 629 km, 82.5° (Epoch: 22 July)

Date Brightness Start Highest point End Pass type
(mag) Time Alt. Az. Time Alt. Az. Time Alt. Az.
23 Jul 4.0 23:14:22 14° S 23:18:01 59° E 23:22:20 10° NNE visible
24 Jul 6.0 21:54:36 10° ESE 21:56:58 14° E 21:59:18 10° NE visible
24 Jul 3.5 23:30:33 16° SSW 23:34:06 86° W 23:38:29 10° N visible
25 Jul 5.4 22:09:39 11° SE 22:12:47 22° E 22:16:10 10° NE visible
25 Jul 3.9 23:46:44 15° SSW 23:50:16 54° WNW 23:54:33 10° N visible
26 Jul 4.7 22:25:48 16° SSE 22:28:42 34° E 22:32:39 10° NNE visible
27 Jul 4.5 00:02:53 12° SW 00:06:29 34° WNW 00:10:30 10° N visible
27 Jul 4.0 22:41:57 21° SSE 22:44:41 55° E 22:48:57 10° NNE visible
28 Jul 5.1 00:19:19 10° WSW 00:22:49 23° WNW 00:26:18 10° N visible
28 Jul 5.9 21:21:29 10° ESE 21:23:38 14° E 21:25:47 10° NE visible
28 Jul 3.5 22:58:04 23° S 23:00:45 89° E 23:05:07 10° NNE visible
29 Jul 5.6 00:36:32 10° W 00:39:13 16° WNW 00:41:53 10° NNW visible
29 Jul 5.4 21:37:06 14° SE 21:39:27 21° E 21:42:43 10° NE visible
29 Jul 3.8 23:14:10 22° SSW 23:16:53 57° WNW 23:21:10 10° N visible
30 Jul 4.7 21:53:12 21° SE 21:55:20 32° E 21:59:13 10° NNE visible
30 Jul 4.5 23:30:16 17° SW 23:33:05 36° WNW 23:37:07 10° N visible
31 Jul 4.0 22:09:17 28° SSE 22:11:17 52° E 22:15:32 10° NNE visible
31 Jul 5.1 23:46:21 12° WSW 23:49:23 24° WNW 23:52:57 10° N visible
01 Aug 5.9 20:48:20 10° ESE 20:50:16 13° E 20:52:11 10° NE visible
01 Aug 3.5 22:25:21 32° S 22:27:20 85° ESE 22:31:42 10° NNE visible
